FFT3383 KSAN-KSFO

Flight info

Callsign FFT3383
Flight time 1h 5m
Altitude 32000
Route PADRZ2 IKAYE RIZIN SPLNT STOKD SERFR SERFR4
Aircraft A320/M-SDE3FGHIRWY/LB1

Departure

Time 2026-05-06 03:16
Airport San Diego International Airport (KSAN)

Arrival

Time 2026-05-06 04:21
Airport San Francisco International Airport (KSFO)
Time Latitude Longitude Altitude Speed Heading
2026-05-06 02:51 32.73346 -117.20060 28 ft 0 kts 263°
2026-05-06 03:00 32.73347 -117.20054 9 ft 4 kts 265°
2026-05-06 03:00 32.73345 -117.20023 29 ft 4 kts 292°
2026-05-06 03:00 32.73331 -117.19998 30 ft 4 kts 329°
2026-05-06 03:01 32.73306 -117.19989 26 ft 4 kts 359°
2026-05-06 03:01 32.73299 -117.19989 29 ft 1 kts
2026-05-06 03:04 32.73317 -117.19987 27 ft 3 kts
2026-05-06 03:04 32.73331 -117.19985 30 ft 4 kts
2026-05-06 03:05 32.73375 -117.19975 27 ft 6 kts 12°
2026-05-06 03:05 32.73404 -117.19968 27 ft 3 kts 13°
2026-05-06 03:05 32.73421 -117.19963 27 ft 2 kts 13°
2026-05-06 03:05 32.73424 -117.19963 27 ft 0 kts 13°
2026-05-06 03:06 32.73425 -117.19962 27 ft 2 kts 13°
2026-05-06 03:07 32.73480 -117.19926 26 ft 12 kts 63°
2026-05-06 03:07 32.73466 -117.19843 27 ft 10 kts 107°
2026-05-06 03:07 32.73432 -117.19706 29 ft 21 kts 106°
2026-05-06 03:07 32.73395 -117.19546 27 ft 19 kts 106°
2026-05-06 03:08 32.73358 -117.19399 30 ft 18 kts 107°
2026-05-06 03:08 32.73323 -117.19256 23 ft 18 kts 106°
2026-05-06 03:08 32.73291 -117.19125 25 ft 15 kts 106°
2026-05-06 03:08 32.73266 -117.19020 26 ft 12 kts 106°
2026-05-06 03:09 32.73237 -117.18900 27 ft 25 kts 106°
2026-05-06 03:09 32.73187 -117.18693 30 ft 26 kts 107°
2026-05-06 03:09 32.73135 -117.18480 28 ft 27 kts 106°
2026-05-06 03:09 32.73082 -117.18259 28 ft 28 kts 106°
2026-05-06 03:10 32.73031 -117.18051 23 ft 24 kts 106°
2026-05-06 03:10 32.72995 -117.17903 25 ft 9 kts 107°
2026-05-06 03:10 32.72981 -117.17848 24 ft 6 kts 107°
2026-05-06 03:10 32.72974 -117.17822 22 ft 2 kts 107°
2026-05-06 03:11 32.72970 -117.17807 22 ft 2 kts 107°
2026-05-06 03:11 32.72961 -117.17775 22 ft 4 kts 107°
2026-05-06 03:11 32.72953 -117.17740 24 ft 8 kts 105°
2026-05-06 03:11 32.72954 -117.17684 23 ft 4 kts 78°
2026-05-06 03:12 32.72955 -117.17680 23 ft 0 kts 77°
2026-05-06 03:12 32.72957 -117.17672 24 ft 7 kts 75°
2026-05-06 03:13 32.73005 -117.17596 26 ft 11 kts 20°
2026-05-06 03:13 32.73034 -117.17637 25 ft 0 kts 283°
2026-05-06 03:13 32.73035 -117.17641 25 ft 1 kts 283°
2026-05-06 03:14 32.73035 -117.17643 25 ft 0 kts 283°
2026-05-06 03:15 32.73040 -117.17665 25 ft 12 kts 284°
2026-05-06 03:15 32.73119 -117.17994 24 ft 78 kts 287°
2026-05-06 03:15 32.73329 -117.18852 25 ft 136 kts 286°
2026-05-06 03:16 32.73621 -117.20048 390 ft 150 kts 286°
2026-05-06 03:16 32.73949 -117.21202 1097 ft 147 kts 297°
2026-05-06 03:16 32.74481 -117.22238 1704 ft 148 kts 303°
2026-05-06 03:16 32.74884 -117.22941 1946 ft 159 kts 303°
2026-05-06 03:17 32.75553 -117.24100 2228 ft 181 kts 303°
2026-05-06 03:17 32.76308 -117.25421 2508 ft 206 kts 303°
2026-05-06 03:17 32.77155 -117.26915 2887 ft 230 kts 303°
2026-05-06 03:17 32.78073 -117.28538 3430 ft 247 kts 304°
2026-05-06 03:18 32.79047 -117.30264 4246 ft 254 kts 304°
2026-05-06 03:18 32.80037 -117.32015 5194 ft 256 kts 305°
2026-05-06 03:18 32.81101 -117.33738 6047 ft 261 kts 308°
2026-05-06 03:18 32.82215 -117.35452 6917 ft 264 kts 309°
2026-05-06 03:19 32.83359 -117.37190 7685 ft 270 kts 309°
2026-05-06 03:19 32.84522 -117.38958 8496 ft 274 kts 309°
2026-05-06 03:19 32.85700 -117.40760 9286 ft 278 kts 309°
2026-05-06 03:19 32.86892 -117.42594 10099 ft 282 kts 309°
2026-05-06 03:20 32.89452 -117.46541 10786 ft 320 kts 308°
2026-05-06 03:20 32.90819 -117.48662 11432 ft 325 kts 308°
2026-05-06 03:20 32.92205 -117.50822 12117 ft 331 kts 308°
2026-05-06 03:21 32.93604 -117.53004 12843 ft 334 kts 308°
2026-05-06 03:21 32.95023 -117.55222 13558 ft 337 kts 308°
2026-05-06 03:21 32.96450 -117.57453 14248 ft 340 kts 308°
2026-05-06 03:21 32.97895 -117.59711 14862 ft 344 kts 308°
2026-05-06 03:22 32.99353 -117.61990 15465 ft 348 kts 308°
2026-05-06 03:22 33.00829 -117.64295 16120 ft 350 kts 308°
2026-05-06 03:22 33.02319 -117.66620 16698 ft 355 kts 309°
2026-05-06 03:22 33.03823 -117.68969 17297 ft 359 kts 308°
2026-05-06 03:23 33.05345 -117.71348 17865 ft 363 kts 308°
2026-05-06 03:23 33.07029 -117.73602 18425 ft 366 kts 319°
2026-05-06 03:23 33.08964 -117.75580 18971 ft 367 kts 321°
2026-05-06 03:23 33.10914 -117.77550 19547 ft 369 kts 320°
2026-05-06 03:24 33.12871 -117.79537 20148 ft 369 kts 320°
2026-05-06 03:24 33.14821 -117.81527 20811 ft 369 kts 320°
2026-05-06 03:24 33.16769 -117.83522 21387 ft 370 kts 319°
2026-05-06 03:24 33.18730 -117.85529 21890 ft 374 kts 319°
2026-05-06 03:25 33.20678 -117.87601 22398 ft 377 kts 318°
2026-05-06 03:25 33.22579 -117.89784 22884 ft 381 kts 316°
2026-05-06 03:25 33.24459 -117.92043 23389 ft 385 kts 315°
2026-05-06 03:25 33.26308 -117.94309 23856 ft 387 kts 315°
2026-05-06 03:26 33.28188 -117.96622 24311 ft 389 kts 315°
2026-05-06 03:26 33.30087 -117.98937 24725 ft 391 kts 315°
2026-05-06 03:26 33.32005 -118.01258 25129 ft 393 kts 315°
2026-05-06 03:26 33.33943 -118.03584 25545 ft 395 kts 315°
2026-05-06 03:27 33.35894 -118.05914 25944 ft 397 kts 315°
2026-05-06 03:27 33.37857 -118.08255 26334 ft 399 kts 316°
2026-05-06 03:27 33.39834 -118.10612 26637 ft 404 kts 317°
2026-05-06 03:27 33.41833 -118.12994 26977 ft 407 kts 317°
2026-05-06 03:28 33.43844 -118.15398 27329 ft 410 kts 316°
2026-05-06 03:28 33.45863 -118.17822 27696 ft 412 kts 316°
2026-05-06 03:28 33.47886 -118.20258 28068 ft 413 kts 316°
2026-05-06 03:28 33.49914 -118.22702 28419 ft 416 kts 316°
2026-05-06 03:29 33.51962 -118.25167 28767 ft 417 kts 316°
2026-05-06 03:29 33.54015 -118.27637 29109 ft 419 kts 316°
2026-05-06 03:29 33.56078 -118.30119 29439 ft 422 kts 317°
2026-05-06 03:29 33.58161 -118.32627 29600 ft 428 kts 318°
2026-05-06 03:30 33.60277 -118.35175 29814 ft 432 kts 318°
2026-05-06 03:30 33.62402 -118.37741 30085 ft 435 kts 318°
2026-05-06 03:30 33.64538 -118.40328 30369 ft 436 kts 317°
2026-05-06 03:30 33.66666 -118.42907 30635 ft 438 kts 317°
2026-05-06 03:31 33.68819 -118.45519 30890 ft 439 kts 317°
2026-05-06 03:31 33.70970 -118.48128 31146 ft 440 kts 317°
2026-05-06 03:31 33.73129 -118.50745 31426 ft 440 kts 317°
2026-05-06 03:31 33.75285 -118.53358 31713 ft 441 kts 319°
2026-05-06 03:32 33.77448 -118.55975 31959 ft 443 kts 319°
2026-05-06 03:32 33.79618 -118.58606 32047 ft 442 kts 318°
2026-05-06 03:32 33.83887 -118.63806 32059 ft 427 kts 318°
2026-05-06 03:33 33.88022 -118.68857 32057 ft 421 kts 319°
2026-05-06 03:33 33.92130 -118.73857 32051 ft 420 kts 320°
2026-05-06 03:34 33.96230 -118.78850 32055 ft 422 kts 320°
2026-05-06 03:34 34.00351 -118.83894 32052 ft 422 kts 320°
2026-05-06 03:35 34.04470 -118.88935 32040 ft 422 kts 320°
2026-05-06 03:35 34.08584 -118.93978 32042 ft 422 kts 320°
2026-05-06 03:36 34.12697 -118.99034 32017 ft 422 kts 322°
2026-05-06 03:36 34.16261 -119.04792 32031 ft 435 kts 309°
2026-05-06 03:37 34.19453 -119.11004 32021 ft 435 kts 309°
2026-05-06 03:37 34.22656 -119.17206 32027 ft 435 kts 309°
2026-05-06 03:38 34.25858 -119.23421 32010 ft 436 kts 310°
2026-05-06 03:38 34.29055 -119.29653 32020 ft 436 kts 310°
2026-05-06 03:39 34.32256 -119.35904 32026 ft 437 kts 310°
2026-05-06 03:39 34.35448 -119.42151 32026 ft 437 kts 310°
2026-05-06 03:40 34.38638 -119.48404 32016 ft 436 kts 310°
2026-05-06 03:40 34.42057 -119.54391 31974 ft 424 kts 322°
2026-05-06 03:41 34.46173 -119.59458 32002 ft 422 kts 323°
2026-05-06 03:41 34.50296 -119.64523 32014 ft 423 kts 323°
2026-05-06 03:42 34.54415 -119.69605 32030 ft 422 kts 323°
2026-05-06 03:42 34.58530 -119.74679 32039 ft 422 kts 323°
2026-05-06 03:43 34.62650 -119.79761 32038 ft 423 kts 323°
2026-05-06 03:43 34.66760 -119.84850 32013 ft 422 kts 323°
2026-05-06 03:44 34.70841 -119.89910 32024 ft 422 kts 323°
2026-05-06 03:44 34.74947 -119.95010 32030 ft 422 kts 324°
2026-05-06 03:45 34.79052 -120.00117 32055 ft 422 kts 324°
2026-05-06 03:45 34.83159 -120.05220 32056 ft 422 kts 324°
2026-05-06 03:46 34.87256 -120.10324 32065 ft 421 kts 324°
2026-05-06 03:46 34.91351 -120.15443 32064 ft 422 kts 323°
2026-05-06 03:47 34.95457 -120.20581 32066 ft 423 kts 323°
2026-05-06 03:47 34.99566 -120.25724 32072 ft 423 kts 323°
2026-05-06 03:48 35.03676 -120.30876 32079 ft 423 kts 323°
2026-05-06 03:48 35.07770 -120.36033 32058 ft 423 kts 323°
2026-05-06 03:49 35.11949 -120.41056 32050 ft 419 kts 326°
2026-05-06 03:49 35.16358 -120.45889 32088 ft 433 kts 327°
2026-05-06 03:50 35.20854 -120.50797 32081 ft 438 kts 326°
2026-05-06 03:50 35.25359 -120.55832 32082 ft 439 kts 325°
2026-05-06 03:51 35.29837 -120.60896 32081 ft 438 kts 325°
2026-05-06 03:51 35.34309 -120.65957 32083 ft 438 kts 325°
2026-05-06 03:52 35.38784 -120.71010 32073 ft 437 kts 325°
2026-05-06 03:52 35.43260 -120.76057 32067 ft 438 kts 325°
2026-05-06 03:53 35.47740 -120.81118 32080 ft 437 kts 326°
2026-05-06 03:53 35.52485 -120.85652 32079 ft 431 kts 331°
2026-05-06 03:54 35.57269 -120.90091 32054 ft 431 kts 330°
2026-05-06 03:54 35.62054 -120.94538 32061 ft 431 kts 330°
2026-05-06 03:55 35.66838 -120.98992 32058 ft 431 kts 330°
2026-05-06 03:55 35.71599 -121.03462 32067 ft 430 kts 330°
2026-05-06 03:56 35.76368 -121.07907 32066 ft 430 kts 330°
2026-05-06 03:56 35.81134 -121.12355 32075 ft 430 kts 330°
2026-05-06 03:57 35.85896 -121.16803 32080 ft 429 kts 330°
2026-05-06 03:57 35.90655 -121.21253 32085 ft 430 kts 330°
2026-05-06 03:58 35.95414 -121.25711 32068 ft 429 kts 330°
2026-05-06 03:58 36.00165 -121.30180 32080 ft 429 kts 330°
2026-05-06 03:59 36.04912 -121.34649 32092 ft 429 kts 330°
2026-05-06 03:59 36.09803 -121.38785 32083 ft 424 kts 335°
2026-05-06 04:00 36.12271 -121.40708 31840 ft 425 kts 335°
2026-05-06 04:00 36.14780 -121.42659 31594 ft 426 kts 335°
2026-05-06 04:00 36.17288 -121.44613 31335 ft 427 kts 334°
2026-05-06 04:00 36.19798 -121.46574 30862 ft 425 kts 334°
2026-05-06 04:01 36.22267 -121.48509 30692 ft 413 kts 334°
2026-05-06 04:01 36.24680 -121.50404 30014 ft 413 kts 334°
2026-05-06 04:01 36.27119 -121.52310 29383 ft 414 kts 334°
2026-05-06 04:01 36.29560 -121.54215 28957 ft 415 kts 334°
2026-05-06 04:02 36.31993 -121.56120 28515 ft 412 kts 334°
2026-05-06 04:02 36.34410 -121.58018 28067 ft 410 kts 334°
2026-05-06 04:02 36.36811 -121.59904 27606 ft 407 kts 334°
2026-05-06 04:02 36.39197 -121.61779 27153 ft 405 kts 334°
2026-05-06 04:03 36.41569 -121.63646 26691 ft 402 kts 334°
2026-05-06 04:03 36.43927 -121.65503 26214 ft 400 kts 333°
2026-05-06 04:03 36.46271 -121.67352 25745 ft 398 kts 333°
2026-05-06 04:03 36.48608 -121.69192 25264 ft 396 kts 333°
2026-05-06 04:04 36.50923 -121.71010 24736 ft 394 kts 333°
2026-05-06 04:04 36.53242 -121.72833 24171 ft 394 kts 333°
2026-05-06 04:04 36.55555 -121.74656 23586 ft 394 kts 333°
2026-05-06 04:04 36.57086 -121.75868 23174 ft 393 kts 333°
2026-05-06 04:05 36.59366 -121.77676 22763 ft 386 kts 332°
2026-05-06 04:05 36.61636 -121.79476 22239 ft 384 kts 332°
2026-05-06 04:05 36.63861 -121.81248 21897 ft 376 kts 332°
2026-05-06 04:05 36.66054 -121.82992 21452 ft 372 kts 332°
2026-05-06 04:06 36.68230 -121.84720 21008 ft 369 kts 332°
2026-05-06 04:06 36.70346 -121.86404 20502 ft 356 kts 332°
2026-05-06 04:06 36.72442 -121.88069 19581 ft 357 kts 332°
2026-05-06 04:06 36.74640 -121.89425 19060 ft 351 kts 343°
2026-05-06 04:07 36.76982 -121.90214 18578 ft 348 kts 350°
2026-05-06 04:07 36.79338 -121.90863 17989 ft 346 kts 350°
2026-05-06 04:07 36.81688 -121.91513 17499 ft 345 kts 350°
2026-05-06 04:07 36.84022 -121.92162 17020 ft 342 kts 350°
2026-05-06 04:08 36.86340 -121.92810 16558 ft 340 kts 350°
2026-05-06 04:08 36.88643 -121.93455 16089 ft 339 kts 350°
2026-05-06 04:08 36.90938 -121.94097 15636 ft 337 kts 350°
2026-05-06 04:08 36.93222 -121.94737 15172 ft 336 kts 350°
2026-05-06 04:09 36.95497 -121.95388 14712 ft 335 kts 349°
2026-05-06 04:09 36.97743 -121.96156 14266 ft 335 kts 346°
2026-05-06 04:09 36.99972 -121.97019 13786 ft 334 kts 345°
2026-05-06 04:09 37.02175 -121.97919 13309 ft 333 kts 345°
2026-05-06 04:10 37.04367 -121.98821 12857 ft 330 kts 345°
2026-05-06 04:10 37.06541 -121.99708 12407 ft 327 kts 345°
2026-05-06 04:10 37.08699 -122.00577 11948 ft 325 kts 345°
2026-05-06 04:10 37.10833 -122.01425 11653 ft 313 kts 346°
2026-05-06 04:11 37.12828 -122.02211 11529 ft 289 kts 346°
2026-05-06 04:11 37.14687 -122.02939 11244 ft 274 kts 346°
2026-05-06 04:11 37.16491 -122.03641 10696 ft 270 kts 346°
2026-05-06 04:11 37.18278 -122.04337 10160 ft 267 kts 345°
2026-05-06 04:12 37.20047 -122.05027 9623 ft 266 kts 346°
2026-05-06 04:12 37.21821 -122.05718 9228 ft 267 kts 346°
2026-05-06 04:12 37.23597 -122.06410 8843 ft 267 kts 346°
2026-05-06 04:12 37.25366 -122.07101 8493 ft 265 kts 345°
2026-05-06 04:13 37.27121 -122.07790 8143 ft 264 kts 345°
2026-05-06 04:13 37.28870 -122.08478 7786 ft 263 kts 344°
2026-05-06 04:13 37.30604 -122.09163 7435 ft 261 kts 344°
2026-05-06 04:13 37.32333 -122.09847 7081 ft 259 kts 344°
2026-05-06 04:14 37.34051 -122.10523 6733 ft 258 kts 344°
2026-05-06 04:14 37.35743 -122.11187 6373 ft 257 kts 344°
2026-05-06 04:14 37.37444 -122.11855 6053 ft 255 kts 343°
2026-05-06 04:14 37.39129 -122.12479 6004 ft 247 kts 345°
2026-05-06 04:15 37.40725 -122.13032 6001 ft 228 kts 346°
2026-05-06 04:15 37.42239 -122.13544 6007 ft 224 kts 346°
2026-05-06 04:15 37.43741 -122.14047 5811 ft 221 kts 346°
2026-05-06 04:15 37.45229 -122.14546 5278 ft 223 kts 346°
2026-05-06 04:16 37.46737 -122.15056 4680 ft 227 kts 345°
2026-05-06 04:16 37.48269 -122.15577 4118 ft 228 kts 344°
2026-05-06 04:16 37.49778 -122.16095 3765 ft 222 kts 342°
2026-05-06 04:16 37.51261 -122.16603 3486 ft 220 kts 343°
2026-05-06 04:17 37.52676 -122.17260 3218 ft 211 kts 326°
2026-05-06 04:17 37.53758 -122.18426 2987 ft 200 kts 306°
2026-05-06 04:17 37.54459 -122.19896 2752 ft 194 kts 296°
2026-05-06 04:17 37.55083 -122.21373 2510 ft 190 kts 296°
2026-05-06 04:18 37.55701 -122.22837 2267 ft 188 kts 296°
2026-05-06 04:18 37.56305 -122.24268 2055 ft 178 kts 296°
2026-05-06 04:18 37.56862 -122.25590 1820 ft 161 kts 296°
2026-05-06 04:18 37.57359 -122.26768 1610 ft 145 kts 296°
2026-05-06 04:19 37.57817 -122.27855 1420 ft 137 kts 296°
2026-05-06 04:19 37.58259 -122.28908 1247 ft 136 kts 296°
2026-05-06 04:19 37.58701 -122.29957 1067 ft 134 kts 296°
2026-05-06 04:19 37.59139 -122.30999 891 ft 135 kts 296°
2026-05-06 04:20 37.59578 -122.32044 722 ft 135 kts 296°
2026-05-06 04:20 37.60016 -122.33084 548 ft 133 kts 296°
2026-05-06 04:20 37.60448 -122.34113 374 ft 133 kts 295°
2026-05-06 04:20 37.60882 -122.35146 168 ft 133 kts 295°
2026-05-06 04:21 37.61305 -122.36159 35 ft 127 kts 297°
2026-05-06 04:21 37.61670 -122.37033 22 ft 95 kts 299°
2026-05-06 04:21 37.61921 -122.37634 24 ft 60 kts 297°
2026-05-06 04:21 37.62005 -122.37886 23 ft 1 kts 236°
2026-05-06 04:22 37.61988 -122.37907 24 ft 9 kts 224°
2026-05-06 04:22 37.61932 -122.37944 23 ft 8 kts 182°
2026-05-06 04:22 37.61891 -122.37924 22 ft 7 kts 150°
2026-05-06 04:23 37.61805 -122.37790 22 ft 10 kts 110°
2026-05-06 04:23 37.61783 -122.37716 22 ft 8 kts 111°
2026-05-06 04:23 37.61750 -122.37615 22 ft 22 kts 111°
2026-05-06 04:23 37.61700 -122.37469 22 ft 14 kts 120°
2026-05-06 04:24 37.61623 -122.37451 22 ft 12 kts 206°
2026-05-06 04:24 37.61516 -122.37523 24 ft 21 kts 208°
2026-05-06 04:24 37.61385 -122.37609 24 ft 21 kts 208°
2026-05-06 04:24 37.61305 -122.37702 24 ft 16 kts 245°
2026-05-06 04:25 37.61302 -122.37843 22 ft 17 kts 292°
2026-05-06 04:25 37.61360 -122.37983 23 ft 19 kts 297°
2026-05-06 04:25 37.61400 -122.38130 22 ft 16 kts 241°
2026-05-06 04:25 37.61300 -122.38206 22 ft 18 kts 208°
2026-05-06 04:26 37.61187 -122.38281 22 ft 19 kts 206°
2026-05-06 04:26 37.61115 -122.38372 24 ft 11 kts 248°
2026-05-06 04:26 37.61121 -122.38458 23 ft 5 kts 297°
2026-05-06 04:26 37.61130 -122.38479 23 ft 0 kts 298°